User: anonymous   Login
Location: Bacea
(45.9500°N, 22.6667°E)
Time: 00:31:18
(UTC+00:00)
Language:

JILIN-01-06 - Orbit

View from above orbital plane
View from above orbital plane
View from above satellite
View from above satellite

Ground track
Ground track

The orbit data is extracted from the following two-line orbital elements,

1 43024U 17074C   22226.70004184  .00002827  00000-0  16951-3 0  9994
2 43024  97.5122 317.4991 0012151 100.5731  57.3444 15.11712129260681
Epoch (UTC): 14 August 2022 16:48:03
Eccentricity: 0.0012151
inclination: 97.5122°
perigee height: 522 km
apogee height: 539 km
right ascension of ascending node: 317.4991°
argument of perigee: 100.5731°
revolutions per day: 15.11712129
mean anomaly at epoch: 57.3444°
orbit number at epoch: 26068

The dashed part of the orbit path shows where the satellite is in the earth's shadow,  

DLR